Flag for Canada Weather past 2 weeks in Morden, Manitoba, Canada

Now
15 °F

Cold.


Feels Like: 1 °F
Forecast: -12 / 12 °F
Wind: 12 mph from North

Location: Morden CDA CS

Current Time: Jan 31, 2015 at 12:00:39 AM

Latest Report: Jan 30, 2015 at 11:00 PM


Visibility: N/A

Pressure: 30.34 "Hg

Humidity: 81%

Dew point: 10 °F

Location of MordenLocation

Historic Weather in Morden — Graph

°F

Morden temperature yesterday

Maximum temperature yesterday: 25 °F (at 4:00 PM)
Minimum temperature yesterday: 5 °F (at 12:00 AM)
Average temperature yesterday: 14 °F

Past Weeks' High & Low Weather Summary

 TemperatureHumidityPressure
High40 °F (Jan 23, 1:00 AM)100% (Jan 26, 11:00 PM)30.65 "Hg (Jan 26, 11:00 PM)
Low2 °F (Jan 29, 8:00 PM)61% (Jan 22, 12:00 PM)29.34 "Hg (Jan 17, 2:00 AM)
Average22 °F84%29.99 "Hg
* Reported Jan 15 11:00 PM — Jan 30 11:00 PM, Morden, Weather by CustomWeather, © 2014

Note: Actual official high and low records may vary slightly from our data, if they occured in-between our weather recording intervals... More about our weather records

Advertising

Morden weather history for previous 24 hours

 ConditionsComfort  
Time TempWeatherWind HumidityBarometerVisibility
11:00 PM
Jan 30
15 °FCold.12 mph81%30.34 "HgN/A
10:00 PM16 °FCold.10 mph81%30.32 "HgN/A
9:00 PM17 °FCold.12 mph82%30.29 "HgN/A
8:00 PM20 °FCold.14 mph76%30.28 "HgN/A
7:00 PM21 °FCold.10 mph83%30.25 "HgN/A
6:00 PM22 °FCold.10 mph87%30.23 "HgN/A
5:00 PM23 °FCold.10 mph80%30.19 "HgN/A
4:00 PM25 °FCold.10 mph78%30.17 "HgN/A
3:00 PM24 °FCold.2 mph82%30.17 "HgN/A
2:00 PM21 °FCold.6 mph84%30.17 "HgN/A
1:00 PM19 °FCold.7 mph86%30.19 "HgN/A
12:00 PM16 °FCold.7 mph87%30.24 "HgN/A
11:00 AM14 °FCold.9 mph87%30.27 "HgN/A
10:00 AM13 °FCold.8 mph94%30.29 "HgN/A
9:00 AM11 °FCold.9 mph87%30.29 "HgN/A
8:00 AM10 °FCold.10 mph86%30.32 "HgN/A
7:00 AM9 °FFrigid.12 mph86%30.37 "HgN/A
6:00 AM8 °FFrigid.10 mph87%30.40 "HgN/A
5:00 AM8 °FFrigid.10 mph87%30.44 "HgN/A
4:00 AM7 °FFrigid.10 mph84%30.48 "HgN/A
3:00 AM7 °FFrigid.9 mph79%30.51 "HgN/A
2:00 AM6 °FFrigid.8 mph80%30.53 "HgN/A
1:00 AM6 °FFrigid.8 mph79%30.55 "HgN/A
12:00 AM5 °FFrigid.7 mph81%30.59 "HgN/A
Weather by CustomWeather, © 2014

See weather overviewHow to use our weather pages